This is the latest recevied weather packets stored in our database for station/object K4HOG. If no packets are shown the sender has not sent any weather packets the latest 1 day(s).
| Time | Temp. | Humidity | Pressure | Rain* | Wind** | Luminosity | Snow |
|---|---|---|---|---|---|---|---|
| 1778025446 | 26.11° C | 55% | 1014.3 hPa | 0 mm | 0.45 m/s, 212° | 7 W/m² | - |
| 1778025144 | 26.67° C | 55% | 1014.1 hPa | 0 mm | 0 m/s | 11 W/m² | - |
| 1778024840 | 26.67° C | 55% | 1014 hPa | 0 mm | 0.89 m/s, 195° | 18 W/m² | - |
| 1778024538 | 26.67° C | 55% | 1014.1 hPa | 0 mm | 0.89 m/s, 201° | 27 W/m² | - |
| 1778024234 | 26.11° C | 55% | 1014 hPa | 0 mm | 3.58 m/s, 79° | 27 W/m² | - |
| 1778023932 | 26.11° C | 55% | 1013.8 hPa | 0 mm | 0 m/s | 30 W/m² | - |
| 1778023629 | 26.67° C | 55% | 1013.8 hPa | 0 mm | 0 m/s | 37 W/m² | - |
| 1778023326 | 26.67° C | 54% | 1013.7 hPa | 0 mm | 0 m/s | 42 W/m² | - |
| 1778023023 | 27.22° C | 53% | 1013.7 hPa | 0 mm | 0 m/s | 48 W/m² | - |
| 1778022722 | 27.22° C | 52% | 1013.8 hPa | 0 mm | 0 m/s | 51 W/m² | - |
| 1778022420 | 27.78° C | 52% | 1013.8 hPa | 0 mm | 0 m/s | 55 W/m² | - |
| 1778022116 | 27.78° C | 50% | 1013.8 hPa | 0 mm | 0 m/s | 59 W/m² | - |
| 1778021812 | 28.33° C | 48% | 1013.7 hPa | 0 mm | 0 m/s | 62 W/m² | - |
| 1778021509 | 28.89° C | 46% | 1013.8 hPa | 0 mm | 0 m/s | 69 W/m² | - |
| 1778021205 | 28.89° C | 44% | 1013.7 hPa | 0 mm | 0 m/s | 76 W/m² | - |
| 1778020903 | 28.89° C | 47% | 1013.9 hPa | 0 mm | 0 m/s | 91 W/m² | - |
| 1778020601 | 29.44° C | 48% | 1013.8 hPa | 0 mm | 0 m/s | 132 W/m² | - |
| 1778020296 | 29.44° C | 47% | 1013.9 hPa | 0 mm | 0 m/s | 142 W/m² | - |
| 1778019992 | 30° C | 43% | 1013.7 hPa | 0 mm | 0 m/s | 161 W/m² | - |
| 1778019689 | 30° C | 46% | 1013.7 hPa | 0 mm | 0.45 m/s, 217° | 170 W/m² | - |
| 1778019386 | 30.56° C | 40% | 1013.8 hPa | 0 mm | 0 m/s | 168 W/m² | - |
| 1778019082 | 30.56° C | 39% | 1013.9 hPa | 0 mm | 0 m/s | 208 W/m² | - |
| 1778018780 | 31.11° C | 42% | 1013.7 hPa | 0 mm | 0.45 m/s, 212° | 213 W/m² | - |
| 1778018477 | 31.11° C | 38% | 1014 hPa | 0 mm | 0.45 m/s, 294° | 232 W/m² | - |
| 1778018175 | 31.11° C | 39% | 1014 hPa | 0 mm | 0.45 m/s, 237° | 259 W/m² | - |
* Rain latest hour (hover to see other rain measurements)
** Current wind speed in m/s (hover to see current wind gust speed)